Temperature
16 17 17 17 17 16 16 15 15 16 16 17 17 17 18 18 19 19 19 19 19 19 19 18 18 18 18 17 17 17 17 16 16 16 16 16 16 16 16 15 15 15 15 15
16 17 17 17 17 17 17 17 16 16 16 17 18 18 18 18 18 18 19 19 19 19 19 18 18 18 18 17 17 17 17 16 16 16 16 16 16 16 16 15 15 15 15 15
15 16 17 16 17 17 17 17 17 17 17 17 17 17 18 18 18 19 19 19 19 19 19 19 18 18 18 18 17 17 17 16 16 16 16 16 16 16 16 15 15 15 15 15
14 15 16 17 17 18 17 17 16 17 17 17 17 18 19 19 19 19 19 19 19 19 19 19 19 18 18 18 17 17 17 17 17 16 16 16 16 16 16 15 15 15 15 15
13 14 15 16 17 17 17 17 16 16 16 17 18 17 18 20 20 20 20 20 20 20 19 19 19 18 18 18 17 17 17 17 17 16 16 16 16 16 15 15 15 15 15 14
13 15 15 16 17 17 17 17 17 17 16 16 16 15 17 20 19 20 20 20 20 19 19 19 19 18 18 18 18 17 17 17 17 16 16 16 16 15 15 15 15 15 14 14
13 14 14 15 16 17 16 16 17 18 17 17 16 17 19 19 19 19 20 20 19 19 19 19 18 18 18 18 18 18 17 17 17 16 16 16 16 15 15 15 15 14 14 14
12 13 15 15 15 15 16 17 18 18 18 18 18 18 19 19 19 19 19 19 19 19 19 18 18 18 18 18 18 17 17 17 17 16 16 16 15 15 15 14 14 14 14 14
12 14 15 15 15 17 17 17 18 18 18 18 18 18 18 18 18 19 19 19 19 19 18 18 18 18 18 18 17 17 17 16 16 16 16 15 15 15 15 14 14 14 14 14
11 13 14 15 16 16 17 17 17 18 18 18 18 18 18 18 18 18 18 18 18 18 18 18 18 17 17 17 17 17 16 16 16 16 15 15 15 15 14 14 14 14 14 14
11 12 14 15 16 16 16 17 17 17 17 17 18 18 18 17 17 17 17 17 17 17 18 17 17 17 17 17 16 16 16 16 15 15 15 15 14 14 14 14 14 14 14 13
12 13 13 15 15 16 16 16 16 17 17 17 17 17 17 17 17 17 17 17 17 17 17 17 17 16 16 16 16 16 16 15 15 15 14 14 14 14 13 13 13 13 13 13
14 14 14 15 15 15 16 16 16 16 16 16 17 17 17 17 16 16 17 17 17 17 17 16 16 16 16 16 16 15 15 15 15 14 14 14 13 13 13 13 13 13 13 13
14 14 14 14 14 15 15 15 15 16 16 16 16 16 16 16 16 16 16 16 16 16 16 16 16 16 15 15 15 15 15 14 14 14 13 13 13 13 13 13 13 13 12 12
14 14 14 14 14 14 15 15 15 15 15 15 15 16 15 15 15 15 16 16 16 16 16 16 16 15 15 15 15 14 14 14 14 13 13 13 13 12 12 12 12 12 12 12
13 13 13 14 14 14 14 14 14 14 14 14 15 15 15 15 15 15 15 15 15 15 15 15 15 15 15 14 14 14 14 14 13 13 13 12 12 12 12 11 11 11 11 11
12 12 12 13 13 13 13 14 14 14 14 14 14 14 14 14 14 14 15 15 15 15 15 15 15 15 14 14 14 14 14 13 13 12 12 12 12 12 11 11 11 11 11 11
12 12 12 13 13 13 13 13 13 13 13 13 13 13 13 13 13 14 14 14 14 14 14 14 14 14 14 14 14 13 13 13 12 12 12 12 11 11 11 11 11 10 10 10
12 12 12 12 12 12 12 12 13 13 13 13 13 13 13 12 13 13 13 13 13 13 14 13 13 13 13 13 13 13 13 12 12 12 11 11 11 11 11 10 10 10 10 10
11 11 11 12 12 12 12 12 12 12 12 12 12 12 12 12 12 12 12 12 12 12 13 13 13 13 13 13 12 12 12 12 12 11 11 11 11 10 10 10 10 9 9 9
11 11 11 11 11 11 11 11 11 12 11 11 11 11 11 11 11 11 11 11 12 12 12 12 12 12 12 12 12 11 11 11 11 11 10 10 10 10 10 9 9 9 9 9
10 10 11 11 11 11 11 11 11 11 11 11 11 11 10 10 11 11 11 11 11 11 11 11 11 11 11 11 11 11 11 10 10 10 10 10 9 9 9 9 9 8 8 8
10 10 10 10 10 10 10 10 10 10 10 10 10 10 10 10 10 10 10 10 10 10 10 11 11 10 10 10 10 10 10 10 10 9 9 9 9 9 9 8 8 8 8 8
9 9 9 9 9 9 9 9 9 9 9 9 9 9 9 9 9 9 9 9 9 9 10 10 10 10 10 10 10 10 10 9 9 9 9 9 8 8 8 8 8 7 7 7
8 8 8 8 9 9 9 8 8 9 9 9 8 8 8 8 8 8 8 8 8 9 9 9 9 9 9 9 9 9 9 9 9 8 8 8 8 7 7 7 7 7 7 6
8 8 8 8 8 8 8 8 8 8 8 8 8 8 8 8 8 8 8 8 8 8 8 8 8 8 8 8 8 8 8 8 8 8 7 7 7 7 7 6 6 6 6 6
7 7 7 7 7 7 7 7 7 7 7 7 7 7 7 7 7 7 7 7 7 7 7 7 7 7 7 7 7 7 7 7 7 7 7 6 6 6 6 6 6 5 5 5
Wind_Speed
5 4 4 5 7 8 7 8 8 8 8 9 7 6 5 3 3 4 5 6 6 7 7 7 7 6 6 6 6 7 7 7 7 6 5 5 5 4 4 4 4 4 4 4
2 3 4 5 7 9 8 7 7 6 8 8 5 3 3 4 6 6 7 7 7 7 7 8 8 7 7 7 6 7 7 7 5 5 5 5 5 4 4 4 4 4 4 4
3 2 0 6 9 10 7 7 8 10 10 4 3 5 6 7 8 9 9 8 8 8 8 8 9 9 9 8 6 7 6 6 5 6 5 5 5 5 5 4 4 4 4 4
2 2 6 8 5 7 8 7 7 6 5 5 7 6 5 6 8 8 8 8 9 8 8 7 7 7 7 6 7 7 6 6 5 6 6 5 5 5 4 3 4 4 4 5
3 4 6 7 4 6 7 5 5 6 5 4 2 1 3 5 7 8 8 8 8 8 7 7 7 7 7 7 7 6 6 6 6 7 6 6 6 5 4 4 4 3 3 4
4 4 6 7 3 2 4 4 5 5 5 3 4 1 6 4 4 5 4 5 5 6 6 6 6 7 8 7 7 8 8 7 6 7 7 7 7 5 4 4 4 4 3 3
5 5 7 6 3 4 5 7 4 5 5 6 6 7 5 2 2 4 4 4 5 6 7 7 7 8 8 7 8 8 6 5 5 6 7 6 5 4 4 4 4 3 3 2
5 4 7 2 4 6 6 4 3 4 5 6 4 2 1 2 3 3 3 4 6 6 6 5 7 9 8 8 7 5 6 5 5 5 5 5 5 5 4 5 4 3 2 1
7 6 4 2 4 4 2 3 3 3 3 4 3 2 2 2 2 3 3 4 5 6 6 5 6 8 9 7 5 6 6 5 5 5 4 5 6 6 4 4 4 4 3 3
3 5 5 4 4 3 2 3 3 3 3 4 3 3 2 2 2 2 3 3 4 6 6 5 5 6 6 5 6 7 6 5 5 5 4 4 4 5 5 5 5 4 4 4
4 5 4 4 3 3 4 3 2 1 1 3 4 3 3 2 2 2 3 3 4 5 6 6 5 5 4 5 7 7 6 5 5 4 5 4 4 4 5 6 6 6 5 5
6 6 4 6 5 3 2 3 1 1 2 1 2 3 2 2 2 2 2 3 4 4 5 5 5 5 4 5 7 7 6 5 5 4 4 4 3 1 2 3 4 5 5 5
6 4 4 5 5 4 3 2 1 0 1 0 0 2 2 1 2 2 2 3 5 5 5 5 5 4 4 5 7 7 6 6 4 5 5 5 4 4 2 1 1 2 3 4
3 2 3 3 4 3 2 1 1 1 1 0 1 1 2 2 2 3 3 3 4 4 4 5 5 4 4 6 6 6 6 6 5 5 5 5 5 4 4 3 2 1 2 3
3 3 4 3 1 1 0 2 2 2 2 2 1 2 2 3 3 2 2 2 3 4 4 4 5 4 4 6 6 6 5 4 4 4 4 4 4 3 3 4 3 2 0 1
3 1 1 1 1 0 1 2 1 0 1 1 1 1 1 2 2 2 2 3 4 4 4 4 4 4 5 6 6 5 5 6 6 4 4 4 4 4 4 3 3 3 3 2
1 1 1 1 1 2 1 2 2 2 1 1 1 1 2 3 3 2 1 1 2 2 3 4 4 4 5 6 6 5 4 5 6 4 4 4 4 4 4 4 4 3 3 3
3 4 4 4 4 3 2 1 2 2 2 1 2 3 3 3 2 1 0 2 2 2 1 1 2 3 4 5 5 5 5 4 4 4 4 4 4 4 4 4 4 3 2 2
1 1 1 2 2 3 3 2 2 2 2 3 3 3 1 1 1 1 2 3 2 0 2 1 1 3 4 5 5 5 5 5 4 3 3 3 3 3 3 3 3 3 2 2
2 1 1 1 0 1 2 2 3 3 3 4 4 3 2 1 1 2 2 1 1 2 1 0 1 2 3 4 5 4 5 5 5 4 3 3 3 3 3 3 3 3 2 2
1 1 1 1 0 1 2 3 3 3 3 3 4 2 1 1 1 1 2 0 2 2 1 1 1 1 2 3 5 4 4 4 4 4 4 4 4 3 3 3 3 3 3 3
2 1 1 0 0 0 1 2 3 4 3 3 3 2 2 1 1 1 0 2 2 1 0 0 1 1 1 2 3 4 4 4 4 3 4 4 4 4 3 3 3 3 3 3
1 1 1 1 1 1 1 1 2 3 3 3 3 2 2 1 1 1 1 2 1 1 0 1 1 1 1 2 2 3 4 4 4 4 4 4 4 4 4 4 3 3 3 2
1 1 0 0 2 2 2 1 1 1 2 2 2 2 2 1 0 1 1 1 2 1 0 1 1 0 1 1 2 2 3 3 3 3 3 3 3 3 3 3 3 3 3 3
0 0 1 1 2 1 1 1 2 2 2 2 1 1 1 1 2 1 0 1 1 1 0 1 0 0 1 1 2 2 2 3 3 3 3 3 3 3 3 3 3 3 3 3
0 0 1 1 1 2 2 2 2 1 1 1 1 0 0 0 1 1 0 0 0 1 0 0 0 0 1 1 1 1 2 2 2 2 3 3 3 3 3 3 3 3 3 2
1 1 1 1 1 0 1 2 2 1 1 2 1 1 0 0 0 0 0 0 0 0 0 0 0 0 1 1 1 1 1 1 2 2 2 2 2 3 3 3 3 2 2 2
Wind_Direction
221 216 193 211 209 186 188 191 196 226 229 252 248 234 232 214 181 165 169 173 179 183 185 182 181 183 183 186 181 177 175 184 198 196 188 181 183 184 178 178 186 184 178 182
246 228 215 235 225 206 211 205 212 231 251 251 245 215 204 199 185 185 189 190 189 186 183 186 187 187 183 186 184 174 179 192 192 180 177 180 183 180 176 182 181 174 180 183
237 267 69 255 227 208 205 201 192 219 235 227 215 220 213 205 196 199 201 196 192 191 190 193 192 186 188 189 176 172 181 185 182 179 180 183 175 171 180 185 179 184 188 184
166 129 226 245 237 201 203 220 208 220 229 211 217 226 226 207 199 206 204 199 196 193 192 193 186 182 178 168 170 178 183 186 184 181 185 178 169 176 180 176 180 192 197 194
154 203 264 284 244 187 189 234 217 214 234 226 213 33 297 224 200 207 204 197 196 192 186 178 176 173 163 166 173 178 189 194 189 184 180 175 178 184 177 173 186 196 196 193
160 185 230 247 265 204 141 255 244 205 216 205 134 170 258 246 212 215 203 189 183 172 160 166 174 163 161 171 176 193 202 202 190 182 180 183 187 180 172 173 189 186 192 196
189 213 251 261 279 117 157 238 252 202 198 178 188 212 239 236 218 204 192 178 164 158 167 180 169 161 168 175 195 205 196 185 178 181 184 181 172 167 164 166 166 173 188 206
170 203 245 279 126 172 220 255 232 209 198 194 214 228 214 190 191 178 170 159 156 162 176 170 162 164 174 193 203 181 168 167 174 179 180 171 162 164 160 160 165 175 180 215
193 215 246 238 219 249 236 239 233 219 222 190 188 204 200 199 187 179 173 170 162 162 163 161 168 172 185 199 175 158 157 167 173 169 170 162 164 165 162 164 170 182 184 208
235 258 266 275 284 304 277 255 254 224 196 175 178 182 175 180 186 176 172 168 163 151 153 169 178 184 192 174 156 156 165 171 166 164 164 161 163 167 170 177 183 188 193 210
239 265 293 298 290 296 314 323 348 55 163 174 161 167 171 176 195 186 175 165 160 166 170 178 174 176 171 159 155 159 168 170 168 169 169 170 175 183 185 194 190 190 201 199
225 229 213 258 281 294 313 312 316 62 31 43 162 171 168 176 202 179 170 165 159 166 170 172 166 163 160 158 158 156 160 168 171 170 168 168 169 176 217 202 200 195 193 187
233 245 236 260 280 287 272 284 306 134 159 172 219 155 149 165 187 158 153 165 173 177 175 166 160 162 164 158 155 157 164 168 167 170 172 173 175 180 198 261 188 201 207 204
246 235 260 259 260 277 278 311 4 21 17 168 166 120 126 129 142 145 169 192 176 159 156 157 158 170 170 158 157 159 159 163 164 174 177 180 185 190 190 190 202 253 251 220
263 233 232 236 241 306 23 65 61 27 20 22 78 108 126 149 166 179 175 148 142 146 156 156 161 178 166 160 162 162 160 164 166 167 172 176 175 176 183 189 195 209 209 235
267 270 190 152 162 150 88 97 110 24 39 27 50 102 158 159 157 134 118 131 142 170 181 172 183 186 168 163 159 160 166 166 161 163 168 168 169 174 179 185 190 194 206 211
209 253 265 266 241 220 193 185 181 172 135 104 76 91 108 107 95 77 71 133 150 172 183 183 195 179 166 163 160 163 163 168 162 161 174 178 180 186 187 187 194 205 216 206
222 221 214 203 203 207 217 187 140 134 137 147 98 86 94 112 132 160 140 91 85 67 32 226 181 165 164 165 161 158 159 163 168 172 176 179 185 186 184 187 196 203 214 203
315 250 235 232 219 191 192 188 170 154 124 107 99 91 90 114 129 103 84 90 94 6 304 304 141 145 166 173 160 157 158 159 164 169 170 172 173 177 181 187 191 196 190 179
346 348 12 354 280 155 166 161 141 132 119 116 108 93 53 16 66 95 93 94 233 247 270 301 142 154 174 177 163 159 162 166 170 172 170 172 180 188 192 193 190 190 190 193
307 326 10 40 308 177 162 151 143 137 128 125 127 136 162 305 42 95 108 340 305 312 325 103 117 165 185 176 161 159 166 171 173 175 177 181 184 188 191 192 193 194 195 197
259 256 253 234 97 279 161 144 145 141 130 123 122 127 123 89 49 44 313 235 265 299 355 184 190 190 165 152 164 168 172 174 176 176 178 182 184 188 192 193 197 201 199 198
256 240 226 199 190 195 109 113 135 143 146 148 151 155 154 163 168 157 296 294 277 291 344 230 240 199 135 130 161 171 174 177 180 184 188 190 191 192 194 194 197 197 197 199
307 299 278 107 99 100 92 43 80 129 127 130 153 158 151 139 345 274 224 303 327 322 328 265 270 221 118 128 153 166 177 184 187 187 185 183 185 188 191 191 193 195 194 191
80 100 115 127 129 149 168 133 94 91 98 94 83 91 147 178 193 238 273 267 289 326 323 279 325 67 114 147 162 174 181 189 188 182 182 182 187 189 194 195 193 191 190 195
105 144 192 206 194 179 166 147 142 156 135 106 36 28 58 99 145 164 158 267 269 319 310 291 267 101 147 170 179 187 189 191 191 189 185 186 188 190 194 195 191 189 185 187
35 44 55 33 15 147 151 152 163 189 191 174 193 268 255 125 120 136 129 326 310 301 289 309 107 157 172 178 181 192 191 183 183 185 182 182 185 187 186 182 185 184 179 182
Height
1513 1511 1512 1513 1513 1516 1520 1523 1529 1524 1521 1512 1508 1507 1506 1507 1508 1510 1511 1514 1516 1519 1522 1525 1527 1530 1534 1536 1539 1542 1544 1546 1548 1550 1552 1554 1555 1557 1558 1559 1560 1561 1562 1562
1513 1509 1510 1511 1509 1511 1513 1514 1517 1516 1514 1504 1503 1504 1504 1505 1506 1507 1509 1511 1514 1517 1519 1522 1525 1527 1530 1533 1536 1539 1541 1543 1546 1548 1549 1551 1553 1554 1556 1557 1558 1559 1560 1560
1519 1512 1511 1515 1505 1505 1506 1506 1508 1512 1506 1501 1502 1502 1501 1502 1503 1505 1507 1509 1511 1514 1517 1519 1522 1525 1528 1531 1534 1536 1538 1540 1543 1545 1546 1548 1550 1552 1553 1554 1555 1556 1557 1558
1520 1518 1522 1506 1494 1495 1498 1499 1500 1500 1499 1498 1498 1498 1499 1499 1500 1502 1504 1506 1509 1511 1514 1517 1520 1523 1525 1528 1531 1533 1536 1538 1540 1542 1544 1546 1547 1549 1550 1552 1553 1554 1555 1555
1521 1521 1514 1500 1493 1494 1497 1498 1495 1496 1495 1496 1496 1497 1497 1497 1498 1500 1501 1504 1506 1509 1512 1515 1518 1520 1523 1526 1528 1530 1532 1535 1537 1539 1540 1542 1544 1545 1547 1549 1550 1551 1552 1553
1518 1518 1516 1500 1489 1488 1493 1499 1491 1491 1493 1494 1496 1501 1497 1495 1496 1498 1499 1502 1504 1507 1510 1513 1515 1518 1520 1522 1524 1526 1529 1531 1534 1536 1537 1539 1541 1543 1544 1546 1547 1549 1550 1550
1514 1514 1506 1493 1488 1489 1502 1498 1488 1488 1489 1491 1493 1494 1493 1493 1494 1496 1498 1500 1502 1505 1507 1510 1513 1515 1517 1519 1521 1523 1526 1529 1531 1533 1535 1536 1538 1540 1542 1543 1545 1546 1547 1548
1512 1512 1506 1489 1489 1492 1491 1486 1485 1485 1486 1487 1488 1489 1490 1491 1492 1494 1495 1497 1500 1502 1505 1507 1510 1512 1514 1516 1518 1521 1524 1526 1527 1530 1532 1533 1535 1537 1539 1540 1542 1543 1544 1545
1500 1498 1489 1486 1487 1486 1485 1484 1483 1483 1484 1485 1486 1487 1488 1489 1491 1492 1494 1496 1498 1500 1502 1505 1507 1509 1511 1513 1516 1518 1520 1522 1524 1526 1528 1530 1532 1533 1535 1537 1538 1539 1540 1541
1494 1488 1485 1484 1484 1483 1483 1482 1481 1481 1482 1483 1484 1485 1487 1488 1489 1490 1492 1494 1496 1498 1500 1502 1504 1507 1509 1512 1514 1516 1517 1519 1521 1523 1525 1527 1528 1530 1531 1533 1534 1535 1536 1537
1489 1485 1483 1481 1482 1481 1481 1480 1479 1479 1480 1481 1482 1484 1485 1486 1487 1488 1490 1492 1494 1496 1498 1500 1502 1504 1507 1509 1511 1513 1515 1516 1518 1520 1522 1523 1525 1527 1528 1530 1531 1532 1533 1534
1485 1481 1481 1480 1480 1480 1479 1478 1478 1477 1478 1479 1481 1482 1483 1485 1486 1487 1488 1490 1492 1494 1496 1498 1500 1502 1504 1506 1508 1510 1511 1513 1515 1517 1519 1520 1522 1524 1525 1527 1528 1529 1530 1531
1478 1477 1478 1478 1478 1478 1478 1477 1477 1477 1477 1478 1479 1481 1482 1483 1485 1486 1487 1488 1490 1492 1494 1496 1498 1500 1502 1504 1505 1507 1508 1510 1512 1513 1515 1517 1518 1520 1521 1523 1524 1526 1527 1527
1475 1475 1475 1475 1475 1475 1476 1476 1475 1476 1476 1477 1478 1479 1480 1481 1483 1484 1485 1487 1488 1490 1493 1494 1496 1498 1500 1502 1503 1505 1506 1508 1509 1510 1512 1513 1515 1516 1518 1519 1520 1521 1522 1523
1472 1472 1472 1472 1472 1473 1473 1473 1474 1474 1474 1475 1476 1476 1478 1479 1481 1482 1484 1485 1487 1489 1491 1492 1494 1496 1498 1499 1501 1502 1504 1505 1506 1508 1509 1510 1512 1513 1514 1515 1516 1517 1518 1519
1469 1469 1469 1470 1469 1470 1471 1471 1472 1472 1473 1473 1474 1474 1476 1477 1479 1480 1482 1483 1485 1486 1488 1490 1492 1494 1495 1497 1498 1500 1501 1502 1504 1505 1506 1507 1508 1509 1510 1511 1512 1513 1514 1515
1466 1466 1467 1467 1468 1469 1469 1469 1470 1471 1471 1472 1472 1473 1474 1475 1477 1478 1480 1482 1483 1485 1486 1488 1489 1491 1493 1494 1495 1497 1498 1500 1501 1502 1503 1504 1505 1506 1507 1508 1508 1509 1510 1511
1464 1464 1465 1465 1466 1467 1467 1467 1468 1469 1470 1471 1472 1472 1473 1474 1475 1476 1478 1480 1481 1483 1484 1485 1487 1488 1490 1491 1492 1494 1495 1496 1498 1499 1500 1501 1502 1503 1503 1504 1505 1506 1506 1507
1461 1461 1462 1463 1464 1464 1465 1466 1467 1468 1469 1470 1470 1471 1473 1473 1474 1475 1476 1478 1479 1480 1482 1483 1484 1485 1486 1488 1489 1490 1491 1493 1494 1495 1497 1497 1498 1499 1500 1500 1501 1502 1502 1503
1459 1459 1459 1460 1461 1462 1463 1464 1465 1466 1467 1468 1469 1470 1472 1472 1473 1474 1474 1475 1477 1478 1479 1480 1481 1482 1483 1484 1485 1486 1488 1489 1490 1491 1492 1493 1494 1495 1496 1497 1497 1498 1499 1499
1456 1457 1457 1458 1459 1460 1461 1462 1462 1463 1465 1466 1467 1469 1470 1471 1471 1472 1472 1473 1475 1476 1477 1477 1478 1479 1480 1481 1482 1483 1484 1485 1486 1487 1488 1489 1490 1491 1492 1493 1494 1494 1495 1495
1454 1455 1455 1456 1457 1457 1458 1459 1460 1462 1463 1464 1465 1467 1468 1469 1469 1470 1471 1472 1472 1473 1474 1474 1475 1476 1476 1477 1478 1479 1480 1481 1482 1483 1484 1485 1486 1487 1488 1489 1489 1490 1490 1491
1452 1453 1453 1454 1455 1455 1456 1457 1459 1460 1461 1462 1463 1464 1465 1466 1467 1468 1468 1469 1469 1470 1471 1471 1472 1473 1473 1474 1475 1475 1476 1477 1478 1479 1480 1481 1482 1483 1483 1484 1485 1485 1486 1486
1450 1451 1451 1452 1453 1453 1454 1455 1457 1458 1459 1460 1461 1462 1463 1464 1465 1466 1466 1466 1466 1467 1467 1468 1469 1469 1470 1470 1471 1472 1472 1473 1474 1475 1476 1477 1478 1479 1479 1480 1480 1481 1481 1481
1449 1449 1450 1450 1451 1452 1453 1454 1455 1455 1456 1457 1459 1460 1461 1462 1462 1462 1462 1463 1463 1464 1464 1465 1465 1466 1466 1466 1467 1468 1468 1469 1470 1471 1472 1472 1473 1474 1475 1475 1476 1476 1476 1476
1447 1447 1448 1449 1450 1451 1451 1452 1453 1454 1454 1455 1456 1458 1459 1459 1459 1460 1460 1460 1460 1460 1461 1461 1461 1462 1462 1463 1463 1464 1464 1465 1466 1467 1468 1468 1469 1469 1470 1471 1471 1471 1472 1472
1446 1446 1447 1447 1448 1449 1450 1450 1451 1452 1453 1453 1454 1455 1456 1456 1456 1456 1457 1457 1457 1457 1457 1457 1458 1458 1458 1459 1459 1460 1460 1461 1462 1462 1463 1464 1464 1465 1466 1466 1467 1467 1467 1467